• MPC Preparation (Info)

  • MPEC 2014-R38 : 2014 RC11

    The following Minor Planet Electronic Circular may be linked-to from your own Web pages, but must not otherwise be redistributed electronically.

    A form allowing access to any MPEC is at the bottom of this page.


    Read MPEC 2014-R37 Read MPEC 2014-R39


    M.P.E.C. 2014-R38                                Issued 2014 Sept. 4, 15:59 UT
    
         The Minor Planet Electronic Circulars contain information on unusual
             minor planets and routine data on comets.  They are published
       on behalf of Commission 20 of the International Astronomical Union by the
              Minor Planet Center, Smithsonian Astrophysical Observatory,
                              Cambridge, MA 02138, U.S.A.
    
                 Prepared using the Tamkin Foundation Computer Network
    
                                  MPC@CFA.HARVARD.EDU
                URL https://www.minorplanetcenter.net/    ISSN 1523-6714
    
                                       2014 RC11
    
    Observations:
         K14R11C* C2014 09 01.22423 21 47 21.73 +06 43 48.9          20.1 VqER038703
         K14R11C  C2014 09 01.23122 21 47 21.30 +06 43 31.0                qER038703
         K14R11C  C2014 09 01.24525 21 47 20.46 +06 42 55.6                qER038703
         K14R11C KC2014 09 01.86478521 46 50.38 +06 16 37.2          20.3 VqER038I93
         K14R11C KC2014 09 01.87606521 46 49.77 +06 16 07.7          20.5 VqER038I93
         K14R11C KC2014 09 01.88937 21 46 49.08 +06 15 33.6          20.4 VqER038958
         K14R11C KC2014 09 01.89714 21 46 48.63 +06 15 14.3          20.5 VqER038958
         K14R11C KC2014 09 01.90491 21 46 48.16 +06 14 54.2          20.4 VqER038958
         K14R11C KC2014 09 02.90871 21 45 59.35 +05 31 29.4          19.8 RqER038203
         K14R11C KC2014 09 02.93978 21 45 57.66 +05 30 06.4                qER038203
         K14R11C KC2014 09 03.07944 21 45 51.77 +05 24 00.1                qER038H21
         K14R11C IC2014 09 03.08842 21 45 51.34 +05 23 36.5          19.6 VqER038H21
         K14R11C KC2014 09 03.09973 21 45 50.68 +05 23 06.8          20.2 VqER038H21
         K14R11C KC2014 09 03.16516021 45 47.15 +05 20 14.7          20.2 VuER038H21
         K14R11C KC2014 09 03.17279021 45 46.74 +05 19 54.2          20.0 VuER038H21
         K14R11C KC2014 09 03.18064121 45 46.30 +05 19 33.4          20.0 VuER038H21
         K14R11C  C2014 09 03.23349 21 45 43.87 +05 17 16.5          19.9 VqER038G96
         K14R11C  C2014 09 03.23940 21 45 43.54 +05 17 01.1          19.8 VqER038G96
         K14R11C  C2014 09 03.24533 21 45 43.21 +05 16 45.3          19.8 VqER038G96
         K14R11C  C2014 09 03.25124 21 45 42.89 +05 16 29.4          19.9 VqER038G96
    
    Observer details:
    203 GiaGa Observatory.  Observers S. Foglia, G. Galli.  Measurer G. Galli.
        0.28-m f/6.8 Schmidt-Cassegrain + CCD.
    703 Catalina Sky Survey.  Observer R. A. Kowalski.  Measurers
        E. J. Christensen, A. R. Gibbs, A. D. Grauer, R. E. Hill, J. A. Johnson,
        R. A. Kowalski, S. M. Larson, F. C. Shelly.  0.68-m Schmidt + CCD.
    958 Observatoire de Dax.  Observers P. Dupouy, J. B. de Vanssay.  Measurer
        P. Dupouy.  0.43-m f/2.7 reflector + CCD.
    G96 Mt. Lemmon Survey.  Observer A. D. Grauer.  Measurers E. J. Christensen,
        A. R. Gibbs, A. D. Grauer, R. E. Hill, J. A. Johnson, R. A. Kowalski,
        S. M. Larson, F. C. Shelly.  1.5-m reflector + CCD.
    H21 Astronomical Research Observatory, Westfield.  Observers R. Holmes,
        T. Linder.  Measurers R. Holmes, T. Linder, L. Buzzi, S. Foglia,
        T. Vorobjov.  0.61-m f/4.0 astrograph + CCD, 0.76-m f/3.0 astrograph + CCD.
    I93 St Pardon de Conques.  Observer F. Losse.  0.40-m f/3.7 reflector + CCD.
    
    Orbital elements:
    2014 RC11                                                Earth MOID = 0.2719 AU
    Epoch 2014 Dec. 9.0 TT = JDT 2457000.5                  MPC
    M 356.76687              (2000.0)            P               Q
    n   0.51179502     Peri.  243.20433     +0.55950297     -0.82765464
    a   1.5478849      Node   172.31171     +0.82794291     +0.55565536
    e   0.2404654      Incl.   19.24373     +0.03830112     +0.07896147
    P   1.93           H   20.5           G   0.15           U   9
    Residuals in seconds of arc
    140901 703  1.0+  0.3+    140901 958  0.2-  0.0     140903 H21  0.6+  0.2-
    140901 703  0.5+  0.0     140902 203  0.9+  1.1+    140903 H21  0.4+  0.3-
    140901 703  0.0   0.1-    140902 203  1.0+  0.3-    140903 G96  0.3+  0.3+
    140901 I93  0.5+  0.6+    140903 H21  0.4+  0.3-    140903 G96  0.3+  0.5+
    140901 I93  0.5+  0.1-    140903 H21  1.1+  0.3-    140903 G96  0.2+  0.4+
    140901 958  0.8+  0.4-    140903 H21  0.2+  0.2-    140903 G96  0.4+  0.1+
    140901 958  0.5+  0.2+    140903 H21  0.4+  0.1+
    
    Ephemeris:
    2014 RC11                a,e,i = 1.55, 0.24, 19                  q = 1.1757
    Date    TT    R. A. (2000) Decl.     Delta      r     Elong.  Phase     V
    2014 08 05    22 06 43.3 +18 16 36   0.5603  1.4918   140.9    25.4    21.3
    ...
    2014 08 20    21 57 36.7 +13 47 24   0.4620  1.4405   153.6    18.2    20.6
    ...
    2014 08 28    21 50 55.5 +09 31 16   0.4233  1.4132   158.8    15.0    20.2
    ...
    2014 09 03    21 45 54.8 +05 27 44   0.4018  1.3930   159.8    14.5    20.1
    2014 09 04    21 45 07.5 +04 43 23   0.3989  1.3896   159.7    14.6    20.0
    2014 09 05    21 44 21.4 +03 58 05   0.3962  1.3863   159.4    14.8    20.0
    ...
    2014 09 11    21 40 18.9 -00 50 09   0.3841  1.3664   155.8    17.6    20.0
    ...
    2014 09 19    21 37 04.0 -07 38 04   0.3790  1.3404   147.7    23.6    20.1
    ...
    2014 10 04    21 40 39.3 -19 31 29   0.3988  1.2945   130.3    36.1    20.5
    
    A. U. Tomatic                (C) Copyright 2014 MPC           M.P.E.C. 2014-R38
    

    Read MPEC 2014-R37 Read MPEC 2014-R39


    MPEC number:

    Enter an MPEC number in one of the following forms:

    • 1997-B01 (the full form)
    • J97B01 (the packed version of the full form)
    • B01 (the abbreviated form)